COSMOS 1275 DEB, 39938

Orbit data source: Space-Track

COSMOS 1275 DEB, 39938 is space debris in LEO originally from a launch on Thu, 04 Jun 1981 UTC launched from the Plesetsk Missile And Space Complex (PKMTR). Debris objects in space refer to the collection of defunct objects orbiting the Earth. Examples of debris include non-operational satellites, rocket bodies, and fragments generated from explosions, collisions, or faulty payload assembly.

Loading next visibility...
Identifier
39938, 1981-053MY
Orbit
LEO
Country
Flag of CISCIS
Related business
Manufacturer
Unknown
Mission
Spacecraft
Bus & Motor
Unknown
Mass
Unknown
Launch date (UTC)
1981-06-04 (45 years ago)
Launch vehicle
Unknown
Launch site
Plesetsk Missile And Space Complex (PKMTR)
Object type
Payload
Rocket body
Debris
Shape & HBR
Unknown shape, 0.1 m
Radar Cross Section
Small (<0.1 m²)

Expand to show TLE details & history
Last TLE update: 6 days ago

TLE from 6 days ago
0 COSMOS 1275 DEB
1 39938U 81053MY  26201.45532248  .00000565  00000-0  60012-3 0  9991
2 39938  83.0674  90.2201 0130096 238.4534 120.3862 13.69153090603798
Epoch: 2026-07-20T10:55Z
TLE epoch observation values (Epoch: 2026-07-20T10:55:39.862Z)
Latitude
0.00001°
Longitude
-11.93511°
Altitude
1,055.007 km
Speed
7.3 km/s
True Right ascension
06h 00m 52s
True Declination
0° 00' 00"
Sunlit
Object was in daylight at epoch
Visualization orbit readout
Latitude
Unknown
Longitude
Unknown
Altitude
Unknown
Speed
Unknown
Apparent Right ascension
Unknown
Apparent Declination
Unknown
Sunlit
N/A
Visualization observer readout
Local Sidereal Time
00:11:11
Azimuth
Unknown
Elevation
Unknown
Doppler factor
Unknown
Orbital elements
Apogee altitude
1,095.748 km
Perigee altitude
903.781 km
Semi-major axis
7,377.902 km
Eccentricity
0.01301
Inclination
83.0674°
RAAN
90.2201°
Arg. of periapsis
238.4534°
True anomaly
121.66161°
Mean anomaly
120.3862°
Eccentric anomaly
121.02496°
Mean motion
3.42487 °/min
Orbital period
105.11 mins
BSTAR
0.00060012
Loading maneuver chart data...
Computing Atmospheric mass density...
Loading historical data...
Loading historical data...
Loading historical data...
Loading historical data...
Loading historical data...
Loading historical data...
Loading historical data...

Documentation

Showing up to 5 results
|